Date,TemperatureHighF,TemperatureAvgF,TemperatureLowF,DewpointHighF,DewpointAvgF,DewpointLowF,HumidityHigh,HumidityAvg,HumidityLow,PressureMaxIn,PressureMinIn,WindSpeedMaxMPH,WindSpeedAvgMPH,GustSpeedMaxMPH,PrecipitationSumIn
2013-3-1,36.8,33.2,28.9,28.5,25.5,22.9,82,73,66,29.81,29.75,10,1,0,0.00
2013-3-2,37.6,31.9,25.6,28.0,24.2,17.1,90,74,50,29.82,29.72,11,1,0,0.01
2013-3-3,32.0,25.5,20.2,18.1,15.5,12.0,82,66,51,29.92,29.80,15,2,0,0.00
2013-3-4,49.9,33.8,18.0,27.0,17.9,12.0,82,55,28,30.05,29.89,7,0,0,0.00
2013-3-5,48.8,43.0,32.3,46.1,36.7,25.3,95,79,56,29.95,29.49,7,0,0,0.62
2013-3-6,35.5,30.3,26.1,28.4,22.2,16.3,87,72,52,30.04,29.51,15,2,0,0.00
2013-3-7,44.5,32.2,26.2,29.9,24.8,21.8,86,75,55,30.17,30.02,11,1,0,0.00
2013-3-8,51.3,35.4,23.6,23.7,20.7,13.0,88,60,26,30.22,30.13,14,1,0,0.00
2013-3-9,60.7,43.4,27.1,31.6,26.6,21.1,81,55,30,30.22,30.10,6,0,0,0.00
2013-3-10,63.2,49.5,36.9,35.7,31.8,28.3,73,53,32,30.12,30.00,10,1,0,0.00
2013-3-11,54.2,51.7,47.1,49.8,48.9,44.9,95,90,81,29.87,29.68,11,0,0,0.72
2013-3-12,48.4,44.4,35.5,40.0,34.1,30.3,93,67,59,29.88,29.73,10,2,0,0.44
2013-3-13,48.4,43.4,28.5,23.8,20.1,16.1,62,40,31,30.04,29.88,13,2,0,0.00
2013-3-14,30.1,26.3,23.6,19.3,14.8,13.1,66,61,59,30.11,30.03,11,2,0,0.00
2013-3-15,66.8,45.8,26.2,38.4,27.4,16.9,78,52,29,30.10,29.82,13,1,0,0.00
2013-3-16,74.5,65.5,55.1,46.3,43.9,41.0,60,47,33,29.72,29.58,19,2,0,0.00
2013-3-17,72.2,60.3,47.9,49.4,44.9,41.9,81,58,39,29.81,29.66,7,0,0,0.00
2013-3-18,47.8,40.9,36.8,42.6,38.3,34.8,95,90,82,29.88,29.73,5,0,0,0.63
2013-3-19,42.6,39.2,33.7,42.5,35.5,20.8,100,88,50,29.94,29.73,4,0,0,0.04
2013-3-20,38.5,35.9,31.2,29.0,15.2,4.1,89,45,26,29.94,29.71,9,1,0,0.00
2013-3-21,31.1,25.5,19.8,28.5,19.6,12.4,91,78,57,29.85,29.64,4,0,0,0.03
2013-3-22,48.9,34.9,23.1,26.5,18.7,12.0,70,53,32,29.94,29.85,9,0,0,0.00
2013-3-23,54.7,43.2,35.0,42.5,36.2,31.2,90,77,61,29.89,29.73,9,1,0,0.00
2013-3-24,44.7,40.9,37.8,40.0,38.1,36.1,94,90,77,29.78,29.38,6,0,0,0.88
2013-3-25,35.9,32.2,28.7,34.1,22.5,17.2,94,69,50,29.78,29.39,13,1,13,0.01
2013-3-26,36.9,31.0,26.4,21.8,19.9,17.6,74,63,51,30.08,29.78,13,2,13,0.00
2013-3-27,43.2,34.0,27.2,25.8,22.0,17.9,76,62,48,30.15,30.06,14,2,14,0.00
2013-3-28,53.6,37.2,25.8,24.3,19.4,12.8,81,53,20,30.19,30.08,14,1,14,0.00
2013-3-29,56.6,40.2,28.4,37.8,26.2,17.4,91,61,27,30.22,30.10,10,0,10,0.00
2013-3-30,61.8,47.9,38.0,43.1,38.6,35.8,95,73,44,30.11,29.91,10,0,10,0.05
2013-3-31,64.0,52.9,45.3,53.3,48.2,39.5,96,85,58,29.91,29.67,11,0,11,0.30